JAVIFLY Weather Reports


time (UTC)temp
C
wind
direction
speed
KPH
gust
KPH
rain 1hr
cm
rain 24hr
cm
rain mn
cm
humidity
%
barometer
mb
20260507005003 8 0 0.0 0.0 0.00 0.00 0.00 88 1015.1
20260507004503 8 0 0.0 0.0 0.00 0.00 0.00 88 1015.1
20260507004003 9 0 0.0 0.0 0.00 0.00 0.00 87 1015.1
20260507003503 9 0 0.0 0.0 0.00 0.00 0.00 86 1015.3
20260507003003 9 97 0.0 1.6 0.00 0.00 0.00 86 1015.0
20260507002503 9 97 0.0 1.6 0.00 0.00 0.00 86 1015.2
20260507002003 9 89 0.0 3.2 0.00 0.00 0.00 86 1015.2
20260507001503 10 93 1.6 3.2 0.00 0.00 0.00 85 1015.1
20260507001003 9 90 1.6 3.2 0.00 0.00 0.00 85 1015.0
20260507000503 9 76 1.6 3.2 0.00 0.00 0.00 85 1015.0
20260507000004 9 79 1.6 3.2 0.00 0.00 0.00 85 1015.1
20260506235503 9 85 1.6 3.2 0.00 0.00 0.00 85 1015.0
20260506235003 10 81 0.0 3.2 0.00 0.00 0.00 84 1015.0
20260506234503 10 92 1.6 3.2 0.00 0.00 0.00 84 1015.0
20260506234003 10 99 1.6 4.8 0.00 0.00 0.00 84 1015.2
20260506233503 10 94 1.6 4.8 0.00 0.00 0.00 85 1015.3
20260506233003 9 83 1.6 3.2 0.00 0.00 0.00 85 1014.8
20260506232503 10 81 1.6 3.2 0.00 0.00 0.00 84 1015.0
20260506232003 10 80 1.6 3.2 0.00 0.00 0.00 83 1015.0
20260506231503 10 92 0.0 3.2 0.00 0.00 0.00 84 1015.1
20260506231003 10 126 0.0 1.6 0.00 0.00 0.00 81 1014.9
20260506230503 10 124 0.0 3.2 0.00 0.00 0.00 80 1015.0
20260506230003 11 133 0.0 4.8 0.00 0.00 0.00 80 1014.9
20260506225503 11 130 0.0 4.8 0.00 0.00 0.00 79 1015.1
20260506225003 11 133 0.0 3.2 0.00 0.00 0.00 79 1015.0
20260506224524 11 142 1.6 4.8 0.00 0.00 0.00 78 1014.9
20260506224025 11 144 1.6 4.8 0.00 0.00 0.00 78 1014.9
20260506223524 11 150 3.2 4.8 0.00 0.00 0.00 78 1014.9
20260506223004 11 152 3.2 6.4 0.00 0.00 0.00 78 1014.8
20260506222503 11 144 3.2 6.4 0.00 0.00 0.00 77 1015.2
20260506222003 11 144 3.2 6.4 0.00 0.00 0.00 77 1015.0
20260506221504 11 145 3.2 6.4 0.00 0.00 0.00 77 1014.8
20260506221003 11 138 3.2 6.4 0.00 0.00 0.00 77 1014.9
20260506220503 11 133 1.6 4.8 0.00 0.00 0.00 77 1015.1
20260506220003 11 136 0.0 4.8 0.00 0.00 0.00 77 1015.2
20260506215503 11 145 0.0 1.6 0.00 0.00 0.00 77 1014.8
20260506215004 11 182 0.0 3.2 0.00 0.00 0.00 77 1014.8
20260506214503 11 190 0.0 3.2 0.00 0.00 0.00 76 1014.8
20260506214003 11 198 0.0 3.2 0.00 0.00 0.00 76 1015.1
20260506213503 11 190 0.0 3.2 0.00 0.00 0.00 76 1015.0
20260506213024 11 189 0.0 3.2 0.00 0.00 0.00 76 1015.0
20260506212503 11 184 0.0 3.2 0.00 0.00 0.00 76 1014.8
20260506212024 12 187 0.0 4.8 0.00 0.00 0.00 76 1015.0
20260506211503 12 187 0.0 4.8 0.00 0.00 0.00 76 1015.0
20260506211024 12 182 0.0 3.2 0.00 0.00 0.00 75 1015.1
20260506210503 12 202 0.0 3.2 0.00 0.00 0.00 75 1015.0
20260506210003 12 196 1.6 6.4 0.00 0.00 0.00 75 1014.8
20260506205503 12 182 1.6 6.4 0.00 0.00 0.00 74 1014.8
20260506205003 12 183 1.6 4.8 0.00 0.00 0.00 74 1014.8
20260506204503 12 201 1.6 6.4 0.00 0.00 0.00 73 1014.6
20260506204003 12 205 1.6 6.4 0.00 0.00 0.00 73 1014.8
20260506203503 12 199 1.6 3.2 0.00 0.00 0.00 72 1014.5
20260506203003 12 197 1.6 6.4 0.00 0.00 0.00 72 1014.6
20260506202503 12 199 1.6 6.4 0.00 0.00 0.00 71 1014.6
20260506202003 13 208 3.2 9.7 0.00 0.00 0.00 70 1014.5
20260506201503 13 209 3.2 9.7 0.00 0.00 0.00 70 1014.5
20260506201003 13 216 3.2 6.4 0.00 0.00 0.00 69 1014.5
20260506200503 13 235 4.8 11.3 0.00 0.00 0.00 69 1014.3
20260506200005 13 245 4.8 11.3 0.00 0.00 0.00 69 1014.2
20260506195524 13 248 4.8 9.7 0.00 0.00 0.00 68 1014.3
20260506195003 13 237 3.2 9.7 0.00 0.00 0.00 67 1014.3
20260506194503 13 220 3.2 9.7 0.00 0.00 0.00 64 1014.2
20260506194003 14 219 3.2 9.7 0.00 0.00 0.00 63 1014.1
20260506193503 14 222 4.8 6.4 0.00 0.00 0.00 61 1014.2
20260506193003 14 218 3.2 6.4 0.00 0.00 0.00 61 1014.1
20260506192504 15 213 3.2 6.4 0.00 0.00 0.00 60 1014.1
20260506192003 15 215 3.2 6.4 0.00 0.00 0.00 59 1013.9
20260506191525 15 218 3.2 9.7 0.00 0.00 0.00 59 1013.9
20260506191004 15 226 4.8 9.7 0.00 0.00 0.00 57 1013.9
20260506190504 15 221 3.2 9.7 0.00 0.00 0.00 57 1013.9
20260506190005 15 179 1.6 6.4 0.00 0.00 0.00 57 1013.9
20260506185504 15 92 1.6 4.8 0.00 0.00 0.00 56 1014.1
20260506185025 15 87 3.2 4.8 0.00 0.00 0.00 56 1014.0
20260506184504 15 99 1.6 4.8 0.00 0.00 0.00 55 1013.9
20260506184003 15 113 1.6 4.8 0.00 0.00 0.00 55 1013.7
20260506183503 15 111 1.6 4.8 0.00 0.00 0.00 54 1013.8
20260506183005 15 95 1.6 4.8 0.00 0.00 0.00 53 1014.0
20260506182504 15 104 3.2 6.4 0.00 0.00 0.00 53 1014.1
20260506182025 15 114 1.6 6.4 0.00 0.00 0.00 54 1013.9
20260506181504 16 109 3.2 9.7 0.00 0.00 0.00 53 1013.9
20260506181004 16 111 4.8 12.9 0.00 0.00 0.00 53 1013.6
20260506180504 16 111 4.8 12.9 0.00 0.00 0.00 51 1013.7
20260506180005 16 111 4.8 12.9 0.00 0.00 0.00 52 1013.9
20260506175504 16 114 3.2 9.7 0.00 0.00 0.00 52 1013.9
20260506175004 16 109 4.8 14.5 0.00 0.00 0.00 52 1013.9
20260506174504 16 105 8.0 14.5 0.00 0.00 0.00 51 1013.9
20260506174004 16 106 6.4 12.9 0.00 0.00 0.00 51 1013.8
20260506173504 16 121 4.8 12.9 0.00 0.00 0.00 49 1013.9
20260506173004 16 141 3.2 6.4 0.00 0.00 0.00 48 1013.9
20260506172504 16 144 3.2 9.7 0.00 0.00 0.00 48 1013.9
20260506172004 16 150 4.8 14.5 0.00 0.00 0.00 49 1013.9
20260506171504 16 146 6.4 14.5 0.00 0.00 0.00 50 1013.9
20260506171004 16 139 6.4 14.5 0.00 0.00 0.00 51 1013.7
20260506170504 16 148 6.4 16.1 0.00 0.00 0.00 51 1013.9
20260506170005 16 160 6.4 16.1 0.00 0.00 0.00 52 1014.0
20260506165505 16 155 6.4 14.5 0.00 0.00 0.00 52 1014.0
20260506165025 16 152 6.4 22.5 0.00 0.00 0.00 51 1014.1
20260506164504 17 160 6.4 22.5 0.00 0.00 0.00 51 1013.9
20260506164004 17 162 4.8 14.5 0.00 0.00 0.00 47 1014.1
20260506163504 17 168 4.8 12.9 0.00 0.00 0.00 46 1013.9
20260506163004 17 198 4.8 12.9 0.00 0.00 0.00 46 1013.8
20260506162504 17 234 4.8 11.3 0.00 0.00 0.00 44 1013.8
20260506162025 17 241 4.8 11.3 0.00 0.00 0.00 44 1013.8
20260506161504 17 222 6.4 12.9 0.00 0.00 0.00 43 1013.8
20260506161004 18 222 4.8 12.9 0.00 0.00 0.00 43 1014.0
20260506160504 17 237 4.8 11.3 0.00 0.00 0.00 43 1013.8
20260506160005 17 240 6.4 11.3 0.00 0.00 0.00 44 1013.9
20260506155504 17 227 4.8 11.3 0.00 0.00 0.00 44 1013.8
20260506155004 17 200 3.2 9.7 0.00 0.00 0.00 41 1013.9
20260506154504 17 155 4.8 12.9 0.00 0.00 0.00 42 1014.0
20260506154004 17 142 8.0 14.5 0.00 0.00 0.00 44 1014.1
20260506153504 17 138 8.0 17.7 0.00 0.00 0.00 44 1014.1
20260506153004 18 142 8.0 22.5 0.00 0.00 0.00 42 1014.2
20260506152525 17 159 6.4 22.5 0.00 0.00 0.00 43 1014.1
20260506152004 18 184 3.2 16.1 0.00 0.00 0.00 40 1014.2
20260506151504 17 135 3.2 11.3 0.00 0.00 0.00 40 1014.2
20260506151004 17 101 4.8 11.3 0.00 0.00 0.00 42 1014.2
20260506150505 17 121 4.8 14.5 0.00 0.00 0.00 40 1014.5
20260506150005 17 152 4.8 14.5 0.00 0.00 0.00 39 1014.5
20260506145504 16 154 4.8 12.9 0.00 0.00 0.00 41 1014.6
20260506145005 17 186 3.2 9.7 0.00 0.00 0.00 40 1014.6
20260506144504 17 229 3.2 9.7 0.00 0.00 0.00 41 1014.7
20260506144004 17 253 3.2 11.3 0.00 0.00 0.00 39 1014.7
20260506143504 17 259 6.4 12.9 0.00 0.00 0.00 41 1014.9
20260506143004 17 258 4.8 12.9 0.00 0.00 0.00 39 1014.8
20260506142504 18 233 3.2 9.7 0.00 0.00 0.00 40 1014.8
20260506142004 17 184 3.2 12.9 0.00 0.00 0.00 40 1015.0
20260506141525 18 180 4.8 12.9 0.00 0.00 0.00 38 1014.9
20260506141004 18 168 3.2 11.3 0.00 0.00 0.00 37 1014.9
20260506140504 17 167 3.2 11.3 0.00 0.00 0.00 40 1015.0
20260506140005 17 174 3.2 11.3 0.00 0.00 0.00 36 1015.0
20260506135504 17 214 3.2 16.1 0.00 0.00 0.00 36 1015.2
20260506135025 18 227 3.2 16.1 0.00 0.00 0.00 36 1015.4
20260506134504 17 210 4.8 16.1 0.00 0.00 0.00 38 1015.3
20260506134025 17 207 4.8 11.3 0.00 0.00 0.00 39 1015.4
20260506133504 17 215 3.2 11.3 0.00 0.00 0.00 36 1015.5
20260506133004 16 239 3.2 12.9 0.00 0.00 0.00 38 1015.6
20260506132504 16 241 6.4 14.5 0.00 0.00 0.00 41 1015.5
20260506132005 16 245 6.4 17.7 0.00 0.00 0.00 38 1015.5
20260506131525 17 244 6.4 17.7 0.00 0.00 0.00 38 1015.6
20260506131025 16 241 6.4 17.7 0.00 0.00 0.00 38 1015.4
20260506130504 16 233 8.0 17.7 0.00 0.00 0.00 39 1015.8
20260506130005 17 198 3.2 14.5 0.00 0.00 0.00 42 1015.8
20260506125504 16 118 1.6 4.8 0.00 0.00 0.00 39 1015.8
20260506125004 16 240 3.2 9.7 0.00 0.00 0.00 40 1015.8
20260506124504 16 251 4.8 12.9 0.00 0.00 0.00 40 1015.9
20260506124004 16 254 6.4 14.5 0.00 0.00 0.00 43 1016.0
20260506123525 16 260 4.8 14.5 0.00 0.00 0.00 42 1016.3
20260506123004 16 338 3.2 9.7 0.00 0.00 0.00 40 1016.6
20260506122504 16 351 3.2 9.7 0.00 0.00 0.00 42 1016.6
20260506122004 15 6 3.2 9.7 0.00 0.00 0.00 40 1016.3
20260506121525 15 304 6.4 14.5 0.00 0.00 0.00 39 1016.4
20260506121004 15 281 6.4 14.5 0.00 0.00 0.00 43 1016.7
20260506120504 15 275 4.8 9.7 0.00 0.00 0.00 43 1016.9
20260506120005 15 141 3.2 6.4 0.00 0.00 0.00 43 1016.8
20260506115504 15 129 3.2 9.7 0.00 0.00 0.00 43 1016.7
20260506115004 15 134 4.8 9.7 0.00 0.00 0.00 43 1017.0
20260506114504 16 175 1.6 6.4 0.00 0.00 0.00 44 1017.2
20260506114004 15 312 3.2 11.3 0.00 0.00 0.00 45 1017.1
20260506113504 15 326 4.8 11.3 0.00 0.00 0.00 45 1017.3
20260506113004 15 304 3.2 11.3 0.00 0.00 0.00 46 1017.3
20260506112525 14 236 3.2 11.3 0.00 0.00 0.00 49 1017.3
20260506112004 13 262 4.8 11.3 0.00 0.00 0.00 49 1017.4
20260506111504 14 344 3.2 9.7 0.00 0.00 0.00 49 1017.6
20260506111025 14 299 3.2 9.7 0.00 0.00 0.00 48 1017.6
20260506110525 13 274 3.2 6.4 0.00 0.00 0.00 48 1017.6
20260506110004 13 236 1.6 6.4 0.00 0.00 0.00 50 1017.8
20260506105504 13 244 3.2 11.3 0.00 0.00 0.00 50 1017.7
20260506105004 13 262 4.8 11.3 0.00 0.00 0.00 50 1017.8
20260506104525 13 276 3.2 9.7 0.00 0.00 0.00 51 1017.7
20260506104004 13 249 4.8 12.9 0.00 0.00 0.00 52 1017.8
20260506103525 13 237 3.2 12.9 0.00 0.00 0.00 52 1018.0
20260506103004 14 170 1.6 9.7 0.00 0.00 0.00 50 1017.8
20260506102504 14 164 3.2 9.7 0.00 0.00 0.00 48 1017.9
20260506102004 13 213 4.8 11.3 0.00 0.00 0.00 50 1018.0
20260506101504 13 222 4.8 11.3 0.00 0.00 0.00 53 1017.9
20260506101004 13 238 4.8 9.7 0.00 0.00 0.00 52 1018.1
20260506100504 13 248 3.2 9.7 0.00 0.00 0.00 55 1017.9
20260506100004 12 185 3.2 6.4 0.00 0.00 0.00 54 1018.1
20260506095504 13 185 1.6 6.4 0.00 0.00 0.00 52 1018.1
20260506095004 13 212 1.6 6.4 0.00 0.00 0.00 53 1018.0
20260506094504 12 166 3.2 6.4 0.00 0.00 0.00 53 1018.0
20260506094004 12 150 3.2 12.9 0.00 0.00 0.00 55 1018.2
20260506093504 12 153 4.8 12.9 0.00 0.00 0.00 58 1018.0
20260506093004 12 186 3.2 12.9 0.00 0.00 0.00 61 1018.0
20260506092504 11 220 3.2 6.4 0.00 0.00 0.00 65 1018.2
20260506092004 12 194 3.2 6.4 0.00 0.00 0.00 62 1018.0
20260506091525 11 143 1.6 4.8 0.00 0.00 0.00 63 1018.3
20260506091004 12 169 1.6 4.8 0.00 0.00 0.00 64 1018.1
20260506090504 11 198 3.2 6.4 0.00 0.00 0.00 65 1018.2
20260506090026 11 210 3.2 11.3 0.00 0.00 0.00 67 1018.3
20260506085504 10 221 4.8 11.3 0.00 0.00 0.00 69 1018.1
20260506085004 10 229 3.2 9.7 0.00 0.00 0.00 72 1018.2
20260506084504 11 218 3.2 9.7 0.00 0.00 0.00 71 1018.1
20260506084004 10 212 3.2 9.7 0.00 0.00 0.00 72 1018.4
20260506083504 10 209 3.2 9.7 0.00 0.00 0.00 74 1018.3
20260506083004 10 216 3.2 9.7 0.00 0.00 0.00 72 1018.3
20260506082504 10 211 3.2 9.7 0.00 0.00 0.00 75 1018.2
20260506082004 10 208 1.6 4.8 0.00 0.00 0.00 76 1018.4
20260506081504 10 233 3.2 6.4 0.00 0.00 0.00 80 1018.4
20260506081004 10 231 3.2 6.4 0.00 0.00 0.00 79 1018.5
20260506080525 10 234 1.6 4.8 0.00 0.00 0.00 80 1018.8
20260506073504 9 250 3.2 6.4 0.00 0.00 0.00 84 1018.5
20260506073004 9 239 3.2 6.4 0.00 0.00 0.00 83 1018.5
20260506072525 9 210 1.6 4.8 0.00 0.00 0.00 83 1018.5
20260506072004 9 207 3.2 6.4 0.00 0.00 0.00 82 1018.4
20260506071525 9 209 1.6 6.4 0.00 0.00 0.00 82 1018.4
20260506071004 9 179 1.6 3.2 0.00 0.00 0.00 82 1018.3
20260506070504 9 148 1.6 6.4 0.00 0.00 0.00 80 1018.5
20260506062504 9 104 0.0 1.6 0.00 0.00 0.00 81 1018.5
20260506062004 9 100 0.0 1.6 0.00 0.00 0.00 80 1018.5
20260506061504 9 314 0.0 1.6 0.00 0.00 0.00 83 1018.4
20260506061004 8 300 0.0 1.6 0.00 0.00 0.00 87 1018.7
20260506060504 7 300 0.0 1.6 0.00 0.00 0.00 89 1018.4
20260506051004 6 320 0.0 1.6 0.00 0.00 0.00 94 1018.0
20260506050504 6 319 1.6 3.2 0.00 0.00 0.00 94 1018.1
20260506045004 6 277 0.0 1.6 0.00 0.00 0.00 95 1018.2
20260506044504 6 262 0.0 1.6 0.00 0.00 0.00 94 1018.2
20260506044003 6 254 0.0 1.6 0.00 0.00 0.00 94 1018.1
20260506043525 6 113 0.0 1.6 0.00 0.00 0.00 94 1018.0
20260506043004 6 95 0.0 1.6 0.00 0.00 0.00 94 1018.1
20260506042504 6 95 0.0 1.6 0.00 0.00 0.00 94 1018.0
20260506042004 6 96 0.0 1.6 0.00 0.00 0.00 94 1018.1
20260506041504 6 79 0.0 1.6 0.00 0.00 0.00 95 1017.9
20260506041004 6 0 0.0 0.0 0.00 0.00 0.00 95 1018.3
20260506040503 6 0 0.0 0.0 0.00 0.00 0.00 95 1018.1
20260506040004 6 358 0.0 1.6 0.00 0.00 0.00 95 1018.3
20260506035503 6 358 0.0 1.6 0.00 0.00 0.00 95 1018.0
20260506035004 6 2 0.0 3.2 0.00 0.00 0.00 95 1018.2
20260506034503 6 5 0.0 3.2 0.00 0.00 0.00 95 1018.2
20260506034024 6 0 0.0 0.0 0.00 0.00 0.00 94 1018.4
20260506033504 6 0 0.0 0.0 0.00 0.00 0.00 94 1018.3
20260506033004 6 0 0.0 0.0 0.00 0.00 0.00 94 1018.3
20260506032504 7 0 0.0 0.0 0.00 0.00 0.00 94 1018.4
20260506032004 7 0 0.0 0.0 0.00 0.00 0.00 94 1018.3
20260506031504 7 0 0.0 0.0 0.00 0.00 0.00 94 1018.3
20260506031004 7 0 0.0 0.0 0.00 0.00 0.00 94 1018.4
20260506030504 7 0 0.0 0.0 0.00 0.00 0.00 93 1018.5
20260506030004 7 0 0.0 0.0 0.00 0.00 0.00 93 1018.3
20260506025504 7 0 0.0 0.0 0.00 0.00 0.00 92 1018.5
20260506025025 7 0 0.0 0.0 0.00 0.00 0.00 92 1018.3
20260506024504 7 0 0.0 0.0 0.00 0.00 0.00 91 1018.3
20260506024004 7 111 0.0 1.6 0.00 0.00 0.00 91 1018.4
20260506023504 7 114 0.0 1.6 0.00 0.00 0.00 91 1018.3
20260506023004 7 101 1.6 3.2 0.00 0.00 0.00 91 1018.3
20260506022504 7 90 0.0 3.2 0.00 0.00 0.00 91 1018.3
20260506022004 7 23 0.0 1.6 0.00 0.00 0.00 91 1018.5
20260506021504 7 295 0.0 3.2 0.00 0.00 0.00 91 1018.5
20260506021003 7 319 1.6 4.8 0.00 0.00 0.00 91 1018.3
20260506020503 7 318 3.2 4.8 0.00 0.00 0.00 90 1018.7
20260506020004 8 295 3.2 6.4 0.00 0.00 0.00 89 1018.5
20260506015525 8 272 3.2 6.4 0.00 0.00 0.00 88 1018.5
20260506015003 8 232 1.6 4.8 0.00 0.00 0.00 89 1018.5
20260506014524 8 235 1.6 4.8 0.00 0.00 0.00 90 1018.3
20260506014004 8 241 1.6 4.8 0.00 0.00 0.00 90 1018.4
20260506013504 8 239 1.6 3.2 0.00 0.00 0.00 89 1018.4
20260506013003 8 236 1.6 3.2 0.00 0.00 0.00 89 1018.3
20260506012503 8 234 1.6 4.8 0.00 0.00 0.00 89 1018.5
20260506012004 8 230 1.6 4.8 0.00 0.00 0.00 88 1018.7
20260506011504 8 217 1.6 3.2 0.00 0.00 0.00 89 1018.5
20260506011004 8 194 0.0 4.8 0.00 0.00 0.00 89 1018.5
20260506010504 8 185 0.0 6.4 0.00 0.00 0.00 90 1018.7
20260506010004 8 160 0.0 6.4 0.00 0.00 0.00 91 1018.7
20260506005504 8 110 0.0 1.6 0.00 0.00 0.00 91 1018.7